PEGASUS DEB, 39314

Orbit data source: Space-Track

PEGASUS DEB, 39314 is space debris in LEO originally from a launch on Thu, 19 May 1994 UTC launched from the Air Force Western Test Range (AFWTR). Debris objects in space refer to the collection of defunct objects orbiting the Earth. Examples of debris include non-operational satellites, rocket bodies, and fragments generated from explosions, collisions, or faulty payload assembly.

Loading next visibility...
Identifier
39314, 1994-029AEZ
Orbit
LEO
Country
Flag of USUS
Related business
Manufacturer
Unknown
Mission
Spacecraft
Bus & Motor
Unknown
Mass
Unknown
Launch date (UTC)
1994-05-19 (32 years ago)
Launch vehicle
Unknown
Launch site
Air Force Western Test Range (AFWTR)
Object type
Payload
Rocket body
Debris
Shape & HBR
Unknown shape, 0.1 m
Radar Cross Section
Small (<0.1 m²)

Expand to show TLE details & history
Last TLE update: 2 days ago

TLE from 2 days ago
0 PEGASUS DEB
1 39314U 94029AEZ 26254.04093396  .00001851  00000-0  23284-3 0  9994
2 39314  81.6564 149.6336 0153456 223.7548 135.1418 14.73573272673368
Epoch: 2026-09-11T00:58Z
TLE epoch observation values (Epoch: 2026-09-11T00:58:56.694Z)
Latitude
0.00004°
Longitude
144.82739°
Altitude
729.956 km
Speed
7.449 km/s
True Right ascension
09h 58m 32s
True Declination
0° 00' 00"
Sunlit
Object was in daylight at epoch
Visualization orbit readout
Latitude
Unknown
Longitude
Unknown
Altitude
Unknown
Speed
Unknown
Apparent Right ascension
Unknown
Apparent Declination
Unknown
Sunlit
N/A
Visualization observer readout
Local Sidereal Time
09:34:32
Azimuth
Unknown
Elevation
Unknown
Doppler factor
Unknown
Orbital elements
Apogee altitude
754.554 km
Perigee altitude
538.951 km
Semi-major axis
7,024.89 km
Eccentricity
0.01535
Inclination
81.6564°
RAAN
149.6336°
Arg. of periapsis
223.7548°
True anomaly
136.36541°
Mean anomaly
135.1418°
Eccentric anomaly
135.75527°
Mean motion
3.68624 °/min
Orbital period
97.66 mins
BSTAR
0.00023284
Loading maneuver chart data...
Computing Atmospheric mass density...
Loading historical data...
Loading historical data...
Loading historical data...
Loading historical data...
Loading historical data...
Loading historical data...
Loading historical data...

Documentation

Showing up to 5 results
|